JQ3CCU-10 Weather Reports


Display with metric or nautical units.
time (UTC)temp
F
wind
direction
speed
MPH
gust
MPH
rain 1hr
in
rain 24hr
in
rain mn
in
humidity
%
barometer
mb
20260504045415 80 0 0.0 0.0 0.00 0.00 0.00 52
20260504042415 80 0 0.0 0.0 0.00 0.00 0.00 54
20260504035415 80 0 0.0 0.0 0.00 0.00 0.00 54
20260504032415 80 0 0.0 0.0 0.00 0.00 0.00 53
20260504025415 80 0 0.0 0.0 0.00 0.00 0.00 53
20260504022415 81 0 0.0 0.0 0.00 0.00 0.00 53
20260504015415 81 0 0.0 0.0 0.00 0.00 0.00 53
20260504012415 83 0 0.0 0.0 0.00 0.00 0.00 53
20260504005415 83 0 0.0 0.0 0.00 0.00 0.00 53
20260504002415 92 0 0.0 0.0 0.00 0.00 0.00 40
20260503235415 92 0 0.0 0.0 0.00 0.00 0.00 40
20260503232415 87 0 0.0 0.0 0.00 0.00 0.00 44
20260503225415 87 0 0.0 0.0 0.00 0.00 0.00 44
20260503222415 71 0 0.0 0.0 0.00 0.00 0.00 73
20260503215415 71 0 0.0 0.0 0.00 0.00 0.00 73
20260503212415 70 0 0.0 0.0 0.00 0.00 0.00 74
20260503205415 70 0 0.0 0.0 0.00 0.00 0.00 74
20260503202415 71 0 0.0 0.0 0.00 0.00 0.00 81
20260503195415 71 0 0.0 0.0 0.00 0.00 0.00 81
20260503192415 70 0 0.0 0.0 0.00 0.00 0.00 76
20260503185415 70 0 0.0 0.0 0.00 0.00 0.00 76
20260503182415 71 0 0.0 0.0 0.00 0.00 0.00 75
20260503175415 71 0 0.0 0.0 0.00 0.00 0.00 75
20260503172415 71 0 0.0 0.0 0.00 0.00 0.00 80